GW3397 Weather Reports


Display with metric or nautical units.
time (UTC)temp
F
wind
direction
speed
MPH
gust
MPH
rain 1hr
in
rain 24hr
in
rain mn
in
humidity
%
barometer
mb
20260509015135 42 210 3.0 3.0 0.00 0.03 0.03 69 1015.7
20260509014631 40 227 2.0 2.0 0.00 0.03 0.03 74 1015.7
20260509014127 40 324 0.0 0.0 0.00 0.03 0.03 75 1015.5
20260509013625 41 326 0.0 0.0 0.00 0.03 0.03 73 1015.6
20260509013120 41 308 0.0 0.0 0.00 0.03 0.03 72 1015.7
20260509012617 41 311 0.0 0.0 0.00 0.03 0.03 70 1015.6
20260509012114 42 310 0.0 0.0 0.00 0.03 0.03 70 1015.4
20260509011612 43 302 0.0 0.0 0.00 0.03 0.03 68 1015.3
20260509011109 43 272 0.0 0.0 0.00 0.03 0.03 67 1015.4
20260509010607 44 284 0.0 0.0 0.00 0.03 0.03 65 1015.3
20260509005601 44 303 0.0 0.0 0.00 0.03 0.03 65 1015.2
20260509005056 44 313 0.0 0.0 0.00 0.03 0.03 65 1015.0
20260509004553 44 257 0.0 0.0 0.00 0.03 0.03 64 1014.8
20260509004050 45 280 0.0 0.0 0.00 0.03 0.03 63 1014.9
20260509003548 45 293 0.0 0.0 0.00 0.03 0.03 64 1014.8
20260509003045 46 296 0.0 0.0 0.00 0.03 0.03 62 1014.9
20260509002543 47 285 0.0 0.0 0.00 0.03 0.03 59 1014.6
20260509002040 47 285 0.0 0.0 0.00 0.03 0.03 58 1014.7
20260509001537 47 296 0.0 0.0 0.00 0.03 0.03 56 1014.4
20260509001033 47 280 0.0 0.0 0.00 0.03 0.03 57 1014.6
20260509000532 48 322 0.0 0.0 0.00 0.03 0.03 57 1014.6
20260509000027 48 311 0.0 0.0 0.00 0.03 0.03 56 1014.4
20260508235525 49 321 0.0 0.0 0.00 0.03 0.03 55 1014.2
20260508235021 50 322 0.0 1.0 0.00 0.03 0.03 54 1014.4
20260508234519 51 280 1.0 2.0 0.00 0.03 0.03 53 1014.2
20260508234015 51 303 5.0 6.0 0.00 0.03 0.03 51 1014.1
20260508233515 51 323 2.0 5.0 0.00 0.03 0.03 52 1014.2
20260508233012 51 303 6.0 9.0 0.00 0.03 0.03 49 1014.4
20260508232509 52 301 2.0 6.0 0.00 0.03 0.03 51 1014.3
20260508232006 52 296 5.0 7.0 0.00 0.03 0.03 48 1014.2
20260508231503 52 297 5.0 8.0 0.00 0.03 0.03 48 1014.2
20260508231000 52 298 5.0 9.0 0.00 0.03 0.03 49 1014.3
20260508230456 53 321 4.0 7.0 0.00 0.03 0.03 50 1014.3
20260508225953 53 297 3.0 7.0 0.00 0.03 0.03 49 1014.3
20260508225451 53 260 3.0 6.0 0.00 0.03 0.03 50 1014.3
20260508224947 53 324 4.0 6.0 0.00 0.03 0.03 48 1014.4
20260508224445 53 275 5.0 8.0 0.00 0.03 0.03 48 1014.3
20260508223942 53 306 8.0 9.0 0.00 0.03 0.03 48 1014.1
20260508223440 53 317 5.0 8.0 0.00 0.03 0.03 48 1014.3
20260508222937 54 293 12.0 15.0 0.00 0.03 0.03 45 1014.2
20260508222434 53 286 4.0 11.0 0.00 0.03 0.03 46 1014.2
20260508221931 53 312 4.0 11.0 0.00 0.03 0.03 53 1014.3
20260508221427 53 297 6.0 8.0 0.00 0.03 0.03 52 1014.2
20260508220923 53 314 3.0 14.0 0.00 0.03 0.03 46 1014.0
20260508220420 54 284 3.0 7.0 0.00 0.03 0.03 55 1014.1
20260508215916 53 271 3.0 8.0 0.00 0.03 0.03 54 1014.2
20260508215413 53 302 4.0 6.0 0.00 0.03 0.03 56 1014.1
20260508214910 53 261 5.0 7.0 0.00 0.03 0.03 57 1014.2
20260508214407 51 294 7.0 11.0 0.00 0.03 0.03 56 1014.4
20260508213903 51 314 7.0 10.0 0.00 0.03 0.03 58 1014.2
20260508213401 52 321 8.0 10.0 0.00 0.03 0.03 57 1014.2
20260508212856 51 297 5.0 10.0 0.00 0.03 0.03 60 1014.4
20260508212353 51 289 3.0 9.0 0.00 0.03 0.03 58 1014.2
20260508211849 52 246 6.0 8.0 0.00 0.03 0.03 58 1014.3
20260508211344 53 225 6.0 9.0 0.00 0.03 0.03 60 1014.1
20260508210842 54 316 5.0 14.0 0.00 0.03 0.03 57 1014.2
20260508210339 54 274 5.0 13.0 0.00 0.03 0.03 60 1014.2
20260508205835 53 277 7.0 15.0 0.00 0.03 0.03 59 1014.1
20260508205332 53 291 7.0 10.0 0.00 0.03 0.03 61 1014.2
20260508204828 53 309 5.0 10.0 0.00 0.03 0.03 60 1014.2
20260508204325 53 343 3.0 7.0 0.00 0.03 0.03 61 1014.2
20260508203821 54 300 3.0 8.0 0.00 0.03 0.03 59 1014.3
20260508203317 53 278 4.0 10.0 0.00 0.03 0.03 59 1014.2
20260508202813 52 258 6.0 15.0 0.00 0.03 0.03 59 1014.2
20260508202311 52 279 7.0 9.0 0.00 0.03 0.03 60 1014.4
20260508201808 53 286 9.0 14.0 0.00 0.03 0.03 61 1014.5
20260508201304 51 294 6.0 8.0 0.00 0.03 0.03 64 1014.2
20260508200801 50 304 3.0 10.0 0.00 0.03 0.03 65 1014.4
20260508200257 50 250 5.0 8.0 0.00 0.03 0.03 65 1014.4
20260508195753 51 324 7.0 9.0 0.00 0.03 0.03 64 1014.4
20260508195250 52 268 7.0 9.0 0.00 0.03 0.03 64 1014.5
20260508194746 51 277 7.0 10.0 0.00 0.03 0.03 63 1014.4
20260508194244 51 249 5.0 9.0 0.00 0.03 0.03 64 1014.5
20260508193741 51 231 4.0 10.0 0.00 0.03 0.03 64 1014.5
20260508193237 53 324 7.0 11.0 0.00 0.03 0.03 61 1014.5
20260508192733 53 302 4.0 13.0 0.00 0.03 0.03 63 1014.6
20260508192231 53 228 7.0 9.0 0.00 0.03 0.03 62 1014.5
20260508191728 52 236 4.0 13.0 0.00 0.03 0.03 63 1014.6
20260508191225 52 294 2.0 11.0 0.00 0.03 0.03 64 1014.5
20260508190722 52 314 5.0 13.0 0.00 0.03 0.03 63 1014.5
20260508190218 50 290 4.0 10.0 0.00 0.03 0.03 66 1014.8
20260508185715 50 332 6.0 11.0 0.00 0.03 0.03 65 1014.8
20260508185212 51 318 3.0 8.0 0.00 0.03 0.03 66 1014.7
20260508184709 51 283 6.0 10.0 0.00 0.03 0.03 65 1014.6
20260508184207 53 266 3.0 11.0 0.00 0.03 0.03 64 1014.8
20260508183703 51 280 5.0 7.0 0.00 0.03 0.03 66 1014.6
20260508183159 50 285 5.0 13.0 0.00 0.03 0.03 67 1014.7
20260508182655 53 280 8.0 15.0 0.00 0.03 0.03 65 1014.8
20260508182152 50 307 7.0 14.0 0.00 0.03 0.03 67 1014.9
20260508181648 50 323 5.0 14.0 0.00 0.03 0.03 66 1015.0
20260508181145 49 258 6.0 8.0 0.00 0.03 0.03 68 1015.0
20260508180642 50 270 5.0 11.0 0.00 0.03 0.03 66 1015.0
20260508180139 51 238 6.0 9.0 0.00 0.03 0.03 65 1014.7
20260508175635 51 254 6.0 9.0 0.00 0.03 0.03 64 1014.9
20260508175132 49 191 6.0 8.0 0.00 0.03 0.03 68 1014.8
20260508174630 49 302 8.0 13.0 0.00 0.03 0.03 66 1014.8
20260508174127 49 291 9.0 11.0 0.00 0.03 0.03 67 1014.9
20260508173624 50 314 3.0 8.0 0.00 0.03 0.03 68 1014.9
20260508173120 49 269 6.0 15.0 0.00 0.03 0.03 66 1014.9
20260508172617 49 223 8.0 13.0 0.00 0.03 0.03 71 1015.1
20260508172113 50 330 3.0 9.0 0.00 0.03 0.03 69 1015.2
20260508171610 50 234 8.0 13.0 0.00 0.03 0.03 69 1015.3
20260508171106 49 335 7.0 9.0 0.00 0.03 0.03 72 1015.2
20260508170604 49 260 5.0 10.0 0.00 0.03 0.03 70 1015.1
20260508165558 48 252 7.0 9.0 0.00 0.03 0.03 73 1015.3
20260508165055 48 265 6.0 10.0 0.00 0.03 0.03 75 1015.5
20260508164551 47 226 5.0 11.0 0.00 0.03 0.03 75 1015.4
20260508164048 48 249 6.0 9.0 0.00 0.03 0.03 76 1015.4
20260508163545 47 314 7.0 10.0 0.00 0.03 0.03 75 1015.3
20260508163042 46 253 6.0 10.0 0.00 0.03 0.03 78 1015.5
20260508162539 46 241 5.0 8.0 0.00 0.03 0.03 80 1015.5
20260508162037 46 209 5.0 9.0 0.00 0.03 0.03 80 1015.3
20260508161533 46 223 11.0 13.0 0.00 0.03 0.03 80 1015.6
20260508161030 46 220 5.0 7.0 0.00 0.03 0.03 82 1015.3
20260508160529 45 208 6.0 9.0 0.00 0.03 0.03 82 1015.2
20260508160025 45 299 4.0 8.0 0.00 0.03 0.03 82 1015.5
20260508155522 45 255 4.0 7.0 0.00 0.03 0.03 85 1015.3
20260508155019 44 208 4.0 7.0 0.00 0.03 0.03 87 1015.6
20260508154517 43 220 5.0 9.0 0.00 0.03 0.03 86 1015.4
20260508154013 42 218 5.0 7.0 0.07 0.03 0.03 86 1015.6
20260508153510 42 244 3.0 8.0 0.07 0.03 0.03 86 1015.5
20260508153006 42 286 5.0 15.0 0.00 0.02 0.02 85 1015.5
20260508152503 44 282 7.0 20.0 0.00 0.02 0.02 79 1015.5
20260508151959 47 307 9.0 18.0 0.00 0.02 0.02 72 1015.4
20260508151456 47 276 4.0 8.0 0.00 0.02 0.02 70 1015.2
20260508150952 47 328 4.0 7.0 0.00 0.02 0.02 71 1015.0
20260508150449 47 306 2.0 8.0 0.00 0.02 0.02 71 1014.9
20260508145945 47 310 3.0 5.0 0.00 0.02 0.02 74 1014.9
20260508145442 46 334 3.0 5.0 0.00 0.02 0.02 75 1014.9
20260508144938 46 329 2.0 5.0 0.05 0.02 0.02 79 1014.9
20260508144436 45 78 0.0 2.0 0.05 0.02 0.02 73 1014.8
20260508143933 47 291 7.0 8.0 0.00 0.01 0.01 69 1015.0
20260508143431 47 294 4.0 6.0 0.00 0.01 0.01 69 1014.9
20260508142927 47 321 5.0 6.0 0.00 0.01 0.01 68 1014.8
20260508142424 47 303 5.0 6.0 0.00 0.01 0.01 69 1014.9
20260508141920 47 226 6.0 7.0 0.00 0.01 0.01 70 1014.6
20260508141417 48 271 5.0 6.0 0.00 0.01 0.01 70 1014.7
20260508140915 47 46 2.0 5.0 0.00 0.01 0.01 70 1015.0
20260508140412 48 304 2.0 3.0 0.00 0.01 0.01 68 1014.6
20260508135907 48 333 1.0 7.0 0.00 0.01 0.01 68 1014.7
20260508135404 48 280 1.0 6.0 0.00 0.01 0.01 69 1014.7
20260508134901 46 357 0.0 1.0 0.00 0.01 0.01 70 1014.6
20260508134357 46 1 0.0 1.0 0.00 0.01 0.01 75 1014.5
20260508133854 48 24 4.0 6.0 0.00 0.01 0.01 76 1014.7
20260508133352 46 5 2.0 3.0 0.00 0.01 0.01 76 1014.7
20260508132848 46 26 3.0 6.0 0.00 0.01 0.01 76 1014.7
20260508132346 46 321 3.0 5.0 0.00 0.01 0.01 78 1014.9
20260508131843 45 33 3.0 5.0 0.00 0.01 0.01 78 1015.0
20260508131338 45 52 1.0 3.0 0.00 0.01 0.01 79 1015.0
20260508130835 45 33 3.0 5.0 0.00 0.01 0.01 81 1015.2
20260508130332 44 36 2.0 5.0 0.00 0.01 0.01 79 1014.9
20260508125828 45 11 3.0 6.0 0.00 0.01 0.01 79 1015.0
20260508125324 46 55 2.0 5.0 0.00 0.01 0.01 80 1014.8
20260508124823 45 17 1.0 3.0 0.00 0.01 0.01 79 1015.0
20260508124319 44 6 0.0 3.0 0.00 0.01 0.01 81 1015.2
20260508123817 44 30 5.0 6.0 0.00 0.01 0.01 81 1015.0
20260508123315 44 84 1.0 5.0 0.00 0.01 0.01 83 1014.9
20260508122811 43 359 1.0 3.0 0.00 0.01 0.01 84 1015.3
20260508122309 43 343 2.0 3.0 0.00 0.01 0.01 84 1015.4
20260508121806 43 302 5.0 7.0 0.00 0.01 0.01 83 1015.2
20260508121305 42 298 3.0 3.0 0.00 0.01 0.01 84 1015.3
20260508120801 42 316 4.0 6.0 0.00 0.01 0.01 83 1015.5
20260508120259 43 329 9.0 9.0 0.00 0.01 0.01 83 1015.5
20260508115757 43 327 4.0 8.0 0.00 0.01 0.01 83 1015.3
20260508115254 43 352 5.0 6.0 0.00 0.01 0.01 84 1015.2
20260508114750 43 311 2.0 3.0 0.00 0.01 0.01 85 1015.0
20260508114247 42 317 3.0 3.0 0.00 0.01 0.01 86 1015.0
20260508113743 41 11 0.0 1.0 0.00 0.01 0.01 87 1015.0
20260508113242 41 345 1.0 3.0 0.00 0.01 0.01 87 1015.1
20260508112738 41 357 1.0 2.0 0.00 0.01 0.01 88 1015.4
20260508112235 41 327 1.0 3.0 0.00 0.01 0.01 88 1015.4
20260508111732 40 319 3.0 3.0 0.00 0.01 0.01 90 1015.1
20260508111230 40 317 3.0 3.0 0.00 0.01 0.01 91 1015.3
20260508110727 39 310 4.0 6.0 0.00 0.01 0.01 92 1015.0
20260508110224 39 308 2.0 2.0 0.00 0.01 0.01 92 1015.0
20260508105723 38 322 0.0 2.0 0.00 0.01 0.01 92 1015.2
20260508105220 38 323 0.0 1.0 0.00 0.01 0.01 92 1015.3
20260508104713 38 328 0.0 0.0 0.00 0.01 0.01 92 1014.9
20260508104209 38 295 0.0 0.0 0.00 0.01 0.01 92 1014.9
20260508103707 38 293 0.0 1.0 0.00 0.01 0.01 92 1014.8
20260508103204 38 299 1.0 1.0 0.00 0.01 0.01 92 1014.7
20260508102701 38 317 0.0 0.0 0.00 0.01 0.01 92 1014.7
20260508102159 38 334 1.0 1.0 0.00 0.01 0.01 92 1014.6
20260508101655 38 233 1.0 1.0 0.00 0.01 0.01 93 1014.4
20260508101153 38 290 0.0 1.0 0.00 0.01 0.01 93 1014.5
20260508100650 38 257 1.0 2.0 0.00 0.01 0.01 93 1014.5
20260508100149 38 244 2.0 3.0 0.00 0.01 0.01 93 1014.7
20260508095645 38 273 1.0 2.0 0.00 0.01 0.01 93 1014.6
20260508095142 38 296 1.0 3.0 0.00 0.01 0.01 93 1014.5
20260508094638 38 231 4.0 5.0 0.00 0.01 0.01 93 1014.7
20260508094135 38 251 3.0 6.0 0.00 0.01 0.01 92 1014.7
20260508093633 38 308 1.0 2.0 0.00 0.01 0.01 92 1014.7
20260508093130 38 316 4.0 7.0 0.00 0.01 0.01 92 1014.8
20260508092627 38 281 5.0 7.0 0.00 0.01 0.01 92 1014.8
20260508092126 38 341 2.0 7.0 0.00 0.01 0.01 91 1014.8
20260508091623 39 285 3.0 7.0 0.00 0.01 0.01 91 1014.7
20260508091120 39 297 5.0 8.0 0.07 0.01 0.01 90 1014.7
20260508090618 39 283 6.0 11.0 0.07 0.01 0.01 89 1014.8
20260508090115 39 306 11.0 11.0 0.00 0.00 0.00 88 1014.5
20260508085611 40 329 7.0 13.0 0.00 0.00 0.00 86 1014.6
20260508085108 41 321 7.0 8.0 0.00 0.00 0.00 83 1014.6
20260508084604 41 330 13.0 20.0 0.00 0.00 0.00 80 1014.6
20260508084101 42 315 11.0 15.0 0.00 0.00 0.00 75 1014.4
20260508083553 42 316 7.0 8.0 0.00 0.00 0.00 73 1014.3
20260508083050 42 270 5.0 7.0 0.00 0.00 0.00 73 1014.1
20260508082546 41 288 2.0 7.0 0.00 0.00 0.00 74 1014.3
20260508082043 41 312 5.0 6.0 0.00 0.00 0.00 73 1014.2
20260508081541 40 311 1.0 2.0 0.00 0.00 0.00 76 1013.9
20260508081036 40 307 1.0 2.0 0.00 0.00 0.00 77 1013.7
20260508080535 40 321 0.0 1.0 0.00 0.00 0.00 76 1013.7
20260508080032 39 326 0.0 0.0 0.00 0.00 0.00 77 1013.7
20260508075528 39 329 0.0 0.0 0.00 0.00 0.00 78 1013.7
20260508075026 39 330 0.0 0.0 0.00 0.00 0.00 78 1013.6
20260508074523 39 329 0.0 0.0 0.00 0.00 0.00 78 1013.4
20260508074020 39 326 0.0 0.0 0.00 0.00 0.00 78 1013.4
20260508073517 40 339 0.0 0.0 0.00 0.00 0.00 77 1013.7
20260508073015 40 313 0.0 1.0 0.00 0.00 0.00 77 1013.5
20260508072510 40 245 2.0 3.0 0.00 0.00 0.00 76 1013.5
20260508072008 39 258 0.0 0.0 0.00 0.00 0.00 76 1013.5
20260508071506 39 305 0.0 0.0 0.00 0.00 0.00 77 1013.2
20260508071003 39 331 0.0 0.0 0.00 0.00 0.00 77 1013.2
20260508070501 38 346 0.0 0.0 0.00 0.00 0.00 78 1013.2
20260508065958 39 346 0.0 0.0 0.00 0.00 0.00 78 1013.0
20260508065456 39 346 0.0 0.0 0.00 0.00 0.00 78 1013.5
20260508064954 39 345 0.0 0.0 0.00 0.00 0.00 77 1013.5
20260508064451 39 345 0.0 0.0 0.00 0.00 0.00 77 1013.3
20260508063949 39 344 0.0 0.0 0.00 0.00 0.00 76 1013.7
20260508063446 40 354 0.0 0.0 0.00 0.00 0.00 75 1013.7
20260508062944 40 8 0.0 0.0 0.00 0.00 0.00 73 1013.4
20260508062441 40 320 0.0 0.0 0.00 0.00 0.00 72 1013.4
20260508061938 39 303 0.0 0.0 0.00 0.00 0.00 73 1013.5
20260508061436 39 308 0.0 0.0 0.00 0.00 0.00 74 1013.3
20260508060932 40 345 0.0 0.0 0.00 0.00 0.00 74 1013.4
20260508060430 40 347 0.0 0.0 0.00 0.00 0.00 72 1013.4
20260508055925 40 340 0.0 0.0 0.00 0.00 0.00 71 1013.4
20260508055422 41 304 0.0 0.0 0.00 0.00 0.00 70 1013.4
20260508054918 41 277 0.0 0.0 0.00 0.00 0.00 69 1013.4
20260508054416 40 293 0.0 0.0 0.00 0.00 0.00 70 1013.5
20260508053913 40 268 0.0 0.0 0.00 0.00 0.00 70 1013.7
20260508053410 40 259 0.0 0.0 0.00 0.00 0.00 70 1013.7
20260508052908 39 277 0.0 0.0 0.00 0.00 0.00 72 1013.6
20260508052405 39 269 0.0 0.0 0.00 0.00 0.00 74 1014.0
20260508051901 38 292 0.0 0.0 0.00 0.00 0.00 74 1013.9
20260508051357 38 310 0.0 0.0 0.00 0.00 0.00 74 1013.9
20260508050853 39 287 0.0 0.0 0.00 0.00 0.00 74 1014.2
20260508050350 39 311 0.0 0.0 0.00 0.00 0.00 73 1014.1
20260508045845 39 285 0.0 0.0 0.00 0.00 0.00 72 1014.1
20260508045338 39 281 0.0 0.0 0.00 0.00 0.00 73 1013.7
20260508044836 38 303 0.0 0.0 0.00 0.00 0.00 74 1014.0
20260508044331 38 321 0.0 0.0 0.00 0.00 0.00 74 1013.6
20260508043828 37 312 0.0 0.0 0.00 0.00 0.00 74 1014.0
20260508043325 36 296 0.0 0.0 0.00 0.00 0.00 76 1013.7
20260508042821 36 328 0.0 0.0 0.00 0.00 0.00 75 1013.7
20260508042319 36 334 0.0 0.0 0.00 0.00 0.00 74 1013.7
20260508041816 37 328 0.0 0.0 0.00 0.00 0.00 73 1013.9
20260508041312 37 328 0.0 0.0 0.00 0.00 0.00 72 1013.6
20260508040809 37 54 0.0 0.0 0.00 0.00 0.00 74 1013.6
20260508040307 37 36 0.0 0.0 0.00 0.00 0.00 76 1013.6
20260508035803 38 4 0.0 0.0 0.00 0.01 0.01 74 1013.5
20260508035301 38 2 0.0 0.0 0.00 0.01 0.01 71 1013.3
20260508034757 39 338 0.0 0.0 0.00 0.01 0.01 68 1013.3
20260508034255 39 340 0.0 0.0 0.00 0.01 0.01 68 1013.2
20260508033751 40 348 0.0 0.0 0.00 0.01 0.01 66 1013.1
20260508033250 41 284 0.0 1.0 0.00 0.01 0.01 65 1013.2
20260508032747 41 331 0.0 0.0 0.00 0.01 0.01 64 1013.0
20260508032244 41 323 0.0 1.0 0.00 0.01 0.01 65 1013.2
20260508031741 41 347 0.0 1.0 0.00 0.01 0.01 65 1013.1
20260508031237 42 319 0.0 1.0 0.00 0.01 0.01 64 1013.1
20260508030734 42 233 1.0 1.0 0.00 0.01 0.01 63 1013.3
20260508030231 42 226 1.0 1.0 0.00 0.01 0.01 63 1013.2
20260508025727 42 197 1.0 1.0 0.00 0.01 0.01 63 1013.3
20260508025225 42 205 1.0 1.0 0.00 0.01 0.01 63 1013.2
20260508024720 42 248 1.0 1.0 0.00 0.01 0.01 63 1013.3
20260508024218 43 204 1.0 2.0 0.00 0.01 0.01 62 1013.3
20260508023714 43 202 1.0 2.0 0.00 0.01 0.01 63 1013.4
20260508023212 43 230 2.0 2.0 0.00 0.01 0.01 62 1013.4
20260508022707 43 204 1.0 2.0 0.00 0.01 0.01 61 1013.6
20260508022205 44 236 2.0 2.0 0.00 0.01 0.01 61 1013.5
20260508021701 44 220 1.0 2.0 0.00 0.01 0.01 61 1013.6
20260508021156 44 211 2.0 3.0 0.00 0.01 0.01 61 1013.5
20260508020654 44 207 1.0 2.0 0.00 0.01 0.01 62 1013.3
20260508020151 44 214 1.0 2.0 0.00 0.01 0.01 60 1013.3
20260508015649 44 256 1.0 1.0 0.00 0.01 0.01 61 1013.3
20260508015146 44 249 1.0 1.0 0.00 0.01 0.01 60 1013.5